Hourly Data Report for October 16, 2015

All times are specified in Local Standard Time (LST). Add 1 hour to adjust for Daylight Saving Time where and when it is observed.

QIKIQTARJUAQ A
NUNAVUT

67°32'48.000" N
64°01'54.000" W
5.50 m
2400577
YVM

Download Data

Hourly Data (October 2015)
Hourly Data Report for October 16, 2015
Temp Definition
°C
Dew Point Temp Definition
°C
Rel Hum Definition
%
Wind Dir Definition
10's deg

Wind Spd Definition
km/h
Visibility Definition
km
Stn Press Definition
kPa
Hmdx Definition


Wind Chill Definition


Weather Definition


TIME
00:00 Legend Double Dagger -7.5 -12.1 70   0 16.1 99.84     LegendNANA
01:00 Legend Double Dagger -7.5 -13.0 65   0 16.1 99.89     LegendNANA
02:00 Legend Double Dagger -6.9 -12.3 66 14 5 16.1 99.90   -9 LegendNANA
03:00 Legend Double Dagger -5.3 -11.5 62 19 5 16.1 99.92   -8 LegendNANA
04:00 Legend Double Dagger -5.5 -13.0 56 20 4 16.1 99.94   -7 LegendNANA
05:00 Legend Double Dagger -5.3 -12.3 58 LegendMM 4 16.1 99.96   -7 LegendNANA
06:00 Legend Double Dagger -4.7 -12.6 55 16 17 16.1 99.98   -11 LegendNANA
07:00 Legend Double Dagger -4.3 -11.0 60 19 21 16.1 99.99   -11 LegendNANA
08:00 Legend Double Dagger -4.1 -9.8 65 20 24 16.1 99.97   -11 LegendNANA
09:00 Legend Double Dagger -3.0 -10.2 58 20 24 16.1 99.93   -10 LegendNANA
10:00 Legend Double Dagger -2.5 -8.9 62 18 8 14.5 99.95   -6 LegendNANA
11:00 Legend Double Dagger -3.9 -10.5 60 LegendMM 4 16.1 99.96   -6 LegendNANA
12:00 Legend Double Dagger -4.2 -8.7 71 6 13 16.1 99.99   -9 LegendNANA
13:00 Legend Double Dagger -2.5 -6.3 75 4 8 16.1 100.06   -6 LegendNANA
14:00 Legend Double Dagger -1.9 -6.3 72 LegendMM 4 16.1 100.09   -3 LegendNANA
15:00 Legend Double Dagger -2.9 -7.3 72 13 13 16.1 100.11   -8 LegendNANA
16:00 Legend Double Dagger -4.4 -8.5 73 14 17 16.1 100.12   -10 LegendNANA
17:00 Legend Double Dagger -5.3 -8.9 76 18 11 16.1 100.15   -10 LegendNANA
18:00 Legend Double Dagger -5.0 -8.8 75 14 18 16.1 100.16   -11 LegendNANA
19:00 Legend Double Dagger -3.9 -8.1 73 12 13 16.1 100.17   -9 LegendNANA
20:00 Legend Double Dagger -4.0 -7.4 78   0 16.1 100.17     LegendNANA
21:00 Legend Double Dagger -3.9 -7.2 78 19 11 16.1 100.16   -8 LegendNANA
22:00 Legend Double Dagger -3.9 -7.2 78 20 17 16.1 100.16   -10 LegendNANA
23:00 Legend Double Dagger -3.7 -7.3 76 18 17 16.1 100.17   -9 LegendNANA

Notes on Data Quality.

Legend

  • E = Estimated
  • M = Missing
  • NA = Not Available
  • ‡ = Partner data that is not subject to review by the National Climate Archives
Date modified: